| time (UTC) | temp F | wind direction | speed MPH | gust MPH | rain 1hr in | rain 24hr in | rain mn in | humidity % | barometer mb |
| 20260906194832 | 99 | 115 | 5.0 | 18.0 | 0.00 | 0.00 | 0.00 | 40 | 1012.0 |
| 20260906194322 | 98 | 63 | 4.0 | 10.0 | 0.00 | 0.00 | 0.00 | 41 | 1012.0 |
| 20260906193812 | 98 | 99 | 4.0 | 11.0 | 0.00 | 0.00 | 0.00 | 41 | 1012.1 |
| 20260906193302 | 98 | 103 | 4.0 | 11.0 | 0.00 | 0.00 | 0.00 | 40 | 1012.2 |
| 20260906192752 | 98 | 56 | 5.0 | 12.0 | 0.00 | 0.00 | 0.00 | 41 | 1012.2 |
| 20260906192242 | 97 | 111 | 4.0 | 11.0 | 0.00 | 0.00 | 0.00 | 42 | 1012.4 |
| 20260906191730 | 96 | 99 | 3.0 | 12.0 | 0.00 | 0.00 | 0.00 | 43 | 1012.5 |
| 20260906191220 | 98 | 62 | 4.0 | 12.0 | 0.00 | 0.00 | 0.00 | 42 | 1012.5 |
| 20260906190710 | 95 | 66 | 4.0 | 14.0 | 0.00 | 0.00 | 0.00 | 45 | 1012.6 |
| 20260906190200 | 96 | 116 | 4.0 | 14.0 | 0.00 | 0.00 | 0.00 | 44 | 1012.5 |
| 20260906185650 | 98 | 64 | 4.0 | 11.0 | 0.00 | 0.00 | 0.00 | 41 | 1012.6 |
| 20260906185641 | 97 | 149 | 5.0 | 16.0 | 0.00 | 0.00 | 0.00 | 43 | 1012.6 |
| 20260906184635 | 97 | 82 | 3.0 | 10.0 | 0.00 | 0.00 | 0.00 | 44 | 1012.7 |
| 20260906184630 | 96 | 89 | 4.0 | 16.0 | 0.00 | 0.00 | 0.00 | 43 | 1012.7 |
| 20260906183620 | 95 | 76 | 3.0 | 8.0 | 0.00 | 0.00 | 0.00 | 45 | 1012.7 |
| 20260906183108 | 97 | 141 | 4.0 | 10.0 | 0.00 | 0.00 | 0.00 | 43 | 1012.8 |
| 20260906182558 | 97 | 89 | 4.0 | 10.0 | 0.00 | 0.00 | 0.00 | 44 | 1012.9 |
| 20260906182040 | 97 | 153 | 4.0 | 10.0 | 0.00 | 0.00 | 0.00 | 44 | 1013.0 |
| 20260906181531 | 97 | 148 | 4.0 | 11.0 | 0.00 | 0.00 | 0.00 | 42 | 1013.0 |
| 20260906181020 | 97 | 106 | 4.0 | 11.0 | 0.00 | 0.00 | 0.00 | 43 | 1013.1 |
| 20260906180511 | 96 | 210 | 3.0 | 10.0 | 0.00 | 0.00 | 0.00 | 45 | 1013.1 |
| 20260906180000 | 96 | 87 | 3.0 | 10.0 | 0.00 | 0.00 | 0.00 | 45 | 1013.3 |
| 20260906175451 | 95 | 157 | 4.0 | 10.0 | 0.00 | 0.00 | 0.00 | 45 | 1013.4 |
| 20260906174941 | 97 | 99 | 3.0 | 10.0 | 0.00 | 0.00 | 0.00 | 46 | 1013.5 |
| 20260906174429 | 96 | 132 | 3.0 | 6.0 | 0.00 | 0.00 | 0.00 | 46 | 1013.6 |
| 20260906173917 | 94 | 282 | 3.0 | 9.0 | 0.00 | 0.00 | 0.00 | 48 | 1013.6 |
| 20260906173409 | 95 | 87 | 3.0 | 9.0 | 0.00 | 0.00 | 0.00 | 47 | 1013.8 |
| 20260906172858 | 95 | 38 | 2.0 | 8.0 | 0.00 | 0.00 | 0.00 | 47 | 1013.8 |
| 20260906172850 | 94 | 54 | 2.0 | 8.0 | 0.00 | 0.00 | 0.00 | 50 | 1013.9 |
| 20260906171838 | 94 | 59 | 3.0 | 7.0 | 0.00 | 0.00 | 0.00 | 49 | 1014.0 |
| 20260906171329 | 94 | 88 | 4.0 | 9.0 | 0.00 | 0.00 | 0.00 | 50 | 1014.1 |
| 20260906170818 | 94 | 124 | 3.0 | 9.0 | 0.00 | 0.00 | 0.00 | 48 | 1014.2 |
| 20260906170309 | 93 | 191 | 3.0 | 10.0 | 0.00 | 0.00 | 0.00 | 52 | 1014.2 |
| 20260906165756 | 93 | 93 | 3.0 | 10.0 | 0.00 | 0.00 | 0.00 | 51 | 1014.3 |
| 20260906165248 | 94 | 143 | 3.0 | 8.0 | 0.00 | 0.00 | 0.00 | 50 | 1014.3 |
| 20260906164736 | 94 | 91 | 2.0 | 8.0 | 0.00 | 0.00 | 0.00 | 50 | 1014.3 |
| 20260906164227 | 93 | 237 | 3.0 | 9.0 | 0.00 | 0.00 | 0.00 | 51 | 1014.3 |
| 20260906163716 | 93 | 179 | 3.0 | 9.0 | 0.00 | 0.00 | 0.00 | 50 | 1014.4 |
| 20260906163210 | 93 | 85 | 3.0 | 7.0 | 0.00 | 0.00 | 0.00 | 51 | 1014.4 |
| 20260906162702 | 92 | 103 | 3.0 | 9.0 | 0.00 | 0.00 | 0.00 | 52 | 1014.3 |
| 20260906162157 | 94 | 116 | 2.0 | 9.0 | 0.00 | 0.00 | 0.00 | 50 | 1014.3 |
| 20260906161650 | 93 | 113 | 3.0 | 8.0 | 0.00 | 0.00 | 0.00 | 54 | 1014.3 |
| 20260906161141 | 93 | 43 | 2.0 | 8.0 | 0.00 | 0.00 | 0.00 | 52 | 1014.3 |
| 20260906161130 | 92 | 135 | 3.0 | 8.0 | 0.00 | 0.00 | 0.00 | 56 | 1014.3 |
| 20260906160120 | 91 | 37 | 2.0 | 8.0 | 0.00 | 0.00 | 0.00 | 56 | 1014.4 |
| 20260906155610 | 91 | 81 | 2.0 | 5.0 | 0.00 | 0.00 | 0.00 | 55 | 1014.3 |
| 20260906155557 | 91 | 97 | 2.0 | 7.0 | 0.00 | 0.00 | 0.00 | 56 | 1014.4 |
| 20260906155200 | 90 | 81 | 2.0 | 7.0 | 0.00 | 0.00 | 0.00 | 56 | 1014.4 |
| 20260906154049 | 91 | 35 | 2.0 | 6.0 | 0.00 | 0.00 | 0.00 | 58 | 1014.4 |
| 20260906153542 | 89 | 132 | 3.0 | 6.0 | 0.00 | 0.00 | 0.00 | 60 | 1014.4 |
| 20260906153037 | 90 | 74 | 3.0 | 6.0 | 0.00 | 0.00 | 0.00 | 60 | 1014.2 |
| 20260906152530 | 88 | 66 | 2.0 | 6.0 | 0.00 | 0.00 | 0.00 | 61 | 1014.2 |
| 20260906152021 | 88 | 113 | 2.0 | 6.0 | 0.00 | 0.00 | 0.00 | 62 | 1014.3 |
| 20260906151519 | 87 | 136 | 3.0 | 7.0 | 0.00 | 0.00 | 0.00 | 63 | 1014.3 |
| 20260906151015 | 88 | 97 | 2.0 | 7.0 | 0.00 | 0.00 | 0.00 | 62 | 1014.3 |
| 20260906151009 | 88 | 157 | 1.0 | 5.0 | 0.00 | 0.00 | 0.00 | 64 | 1014.2 |
| 20260906150006 | 85 | 103 | 2.0 | 7.0 | 0.00 | 0.00 | 0.00 | 64 | 1014.2 |
| 20260906150001 | 86 | 168 | 2.0 | 6.0 | 0.00 | 0.00 | 0.00 | 65 | 1014.1 |
| 20260906144954 | 87 | 64 | 2.0 | 6.0 | 0.00 | 0.00 | 0.00 | 64 | 1014.1 |
| 20260906144449 | 87 | 68 | 1.0 | 6.0 | 0.00 | 0.00 | 0.00 | 63 | 1014.0 |
| 20260906143949 | 87 | 68 | 2.0 | 6.0 | 0.00 | 0.00 | 0.00 | 64 | 1014.0 |
| 20260906143439 | 86 | 64 | 2.0 | 6.0 | 0.00 | 0.00 | 0.00 | 66 | 1014.0 |
| 20260906142937 | 85 | 78 | 2.0 | 6.0 | 0.00 | 0.00 | 0.00 | 67 | 1014.1 |
| 20260906142514 | 85 | 97 | 1.0 | 4.0 | 0.00 | 0.00 | 0.00 | 68 | 1014.1 |
| 20260906142431 | 84 | 122 | 1.0 | 5.0 | 0.00 | 0.00 | 0.00 | 67 | 1014.1 |
| 20260906141925 | 85 | 80 | 1.0 | 4.0 | 0.00 | 0.00 | 0.00 | 66 | 1014.0 |
| 20260906141909 | 84 | 97 | 1.0 | 4.0 | 0.00 | 0.00 | 0.00 | 69 | 1014.0 |
| 20260906140359 | 83 | 91 | 0.0 | 4.0 | 0.00 | 0.00 | 0.00 | 70 | 1013.9 |
| 20260906135858 | 83 | 91 | 1.0 | 4.0 | 0.00 | 0.00 | 0.00 | 70 | 1014.0 |
| 20260906135853 | 82 | 108 | 1.0 | 5.0 | 0.00 | 0.00 | 0.00 | 72 | 1013.9 |
| 20260906135347 | 82 | 85 | 1.0 | 5.0 | 0.00 | 0.00 | 0.00 | 72 | 1013.8 |
| 20260906134340 | 81 | 114 | 1.0 | 3.0 | 0.00 | 0.00 | 0.00 | 73 | 1013.8 |
| 20260906133833 | 80 | 107 | 1.0 | 3.0 | 0.00 | 0.00 | 0.00 | 75 | 1013.9 |
| 20260906133828 | 79 | 96 | 1.0 | 3.0 | 0.00 | 0.00 | 0.00 | 76 | 1013.9 |
| 20260906132822 | 79 | 95 | 1.0 | 3.0 | 0.00 | 0.00 | 0.00 | 77 | 1013.9 |
| 20260906132311 | 79 | 94 | 0.0 | 3.0 | 0.00 | 0.00 | 0.00 | 77 | 1013.8 |
| 20260906131802 | 79 | 93 | 0.0 | 0.0 | 0.00 | 0.00 | 0.00 | 77 | 1013.8 |
| 20260906131300 | 79 | 93 | 0.0 | 0.0 | 0.00 | 0.00 | 0.00 | 77 | 1013.8 |
| 20260906130757 | 78 | 93 | 0.0 | 0.0 | 0.00 | 0.00 | 0.00 | 77 | 1013.9 |
| 20260906130257 | 78 | 93 | 0.0 | 1.0 | 0.00 | 0.00 | 0.00 | 77 | 1013.8 |
| 20260906125759 | 78 | 99 | 0.0 | 3.0 | 0.00 | 0.00 | 0.00 | 77 | 1013.7 |
| 20260906125755 | 78 | 93 | 0.0 | 3.0 | 0.00 | 0.00 | 0.00 | 77 | 1013.7 |
| 20260906124746 | 78 | 95 | 0.0 | 3.0 | 0.00 | 0.00 | 0.00 | 77 | 1013.6 |
| 20260906124236 | 78 | 101 | 1.0 | 4.0 | 0.00 | 0.00 | 0.00 | 77 | 1013.6 |
| 20260906123726 | 78 | 99 | 1.0 | 4.0 | 0.00 | 0.00 | 0.00 | 77 | 1013.7 |
| 20260906123715 | 78 | 99 | 1.0 | 4.0 | 0.00 | 0.00 | 0.00 | 77 | 1013.6 |
| 20260906122707 | 78 | 101 | 1.0 | 4.0 | 0.00 | 0.00 | 0.00 | 77 | 1013.5 |
| 20260906122155 | 78 | 96 | 1.0 | 4.0 | 0.00 | 0.00 | 0.00 | 76 | 1013.5 |
| 20260906121646 | 78 | 100 | 1.0 | 4.0 | 0.00 | 0.00 | 0.00 | 76 | 1013.5 |
| 20260906121135 | 78 | 101 | 2.0 | 5.0 | 0.00 | 0.00 | 0.00 | 76 | 1013.4 |
| 20260906120626 | 78 | 101 | 2.0 | 5.0 | 0.00 | 0.00 | 0.00 | 76 | 1013.4 |
| 20260906120115 | 78 | 99 | 2.0 | 5.0 | 0.00 | 0.00 | 0.00 | 76 | 1013.3 |
| 20260906115606 | 78 | 112 | 1.0 | 3.0 | 0.00 | 0.00 | 0.00 | 76 | 1013.3 |
| 20260906115556 | 78 | 119 | 0.0 | 0.0 | 0.00 | 0.00 | 0.00 | 76 | 1013.2 |
| 20260906114545 | 78 | 125 | 0.0 | 0.0 | 0.00 | 0.00 | 0.00 | 76 | 1013.2 |
| 20260906114027 | 78 | 129 | 0.0 | 0.0 | 0.00 | 0.00 | 0.00 | 76 | 1013.1 |
| 20260906113516 | 78 | 136 | 0.0 | 0.0 | 0.00 | 0.00 | 0.00 | 75 | 1013.0 |
| 20260906112959 | 78 | 138 | 0.0 | 0.0 | 0.00 | 0.00 | 0.00 | 75 | 1013.0 |
| 20260906112449 | 78 | 138 | 0.0 | 0.0 | 0.00 | 0.00 | 0.00 | 75 | 1013.0 |
| 20260906111939 | 79 | 138 | 0.0 | 0.0 | 0.00 | 0.00 | 0.00 | 75 | 1012.9 |
| 20260906111429 | 79 | 138 | 0.0 | 0.0 | 0.00 | 0.00 | 0.00 | 75 | 1012.9 |
| 20260906110918 | 79 | 139 | 0.0 | 0.0 | 0.00 | 0.00 | 0.00 | 74 | 1012.9 |
| 20260906110409 | 79 | 140 | 0.0 | 0.0 | 0.00 | 0.00 | 0.00 | 74 | 1012.9 |
| 20260906105859 | 79 | 141 | 0.0 | 0.0 | 0.00 | 0.00 | 0.00 | 74 | 1012.8 |
| 20260906105353 | 79 | 141 | 0.0 | 0.0 | 0.00 | 0.00 | 0.00 | 74 | 1012.8 |
| 20260906104843 | 79 | 141 | 0.0 | 0.0 | 0.00 | 0.00 | 0.00 | 74 | 1012.8 |
| 20260906104834 | 79 | 159 | 0.0 | 0.0 | 0.00 | 0.00 | 0.00 | 74 | 1012.8 |
| 20260906103823 | 79 | 186 | 0.0 | 0.0 | 0.00 | 0.00 | 0.00 | 73 | 1012.9 |
| 20260906103814 | 79 | 188 | 0.0 | 0.0 | 0.00 | 0.00 | 0.00 | 73 | 1012.9 |
| 20260906102803 | 79 | 189 | 0.0 | 0.0 | 0.00 | 0.00 | 0.00 | 73 | 1012.8 |
| 20260906102253 | 80 | 190 | 0.0 | 0.0 | 0.00 | 0.00 | 0.00 | 73 | 1012.8 |
| 20260906101743 | 80 | 189 | 0.0 | 0.0 | 0.00 | 0.00 | 0.00 | 72 | 1012.7 |
| 20260906101233 | 80 | 207 | 0.0 | 0.0 | 0.00 | 0.00 | 0.00 | 72 | 1012.6 |
| 20260906100723 | 80 | 207 | 0.0 | 0.0 | 0.00 | 0.00 | 0.00 | 72 | 1012.6 |
| 20260906100213 | 80 | 207 | 0.0 | 0.0 | 0.00 | 0.00 | 0.00 | 72 | 1012.5 |
| 20260906095703 | 80 | 207 | 0.0 | 0.0 | 0.00 | 0.00 | 0.00 | 72 | 1012.4 |
| 20260906095154 | 80 | 207 | 0.0 | 0.0 | 0.00 | 0.00 | 0.00 | 72 | 1012.3 |
| 20260906094644 | 80 | 209 | 0.0 | 0.0 | 0.00 | 0.00 | 0.00 | 72 | 1012.3 |
| 20260906094634 | 80 | 209 | 0.0 | 0.0 | 0.00 | 0.00 | 0.00 | 72 | 1012.1 |
| 20260906093622 | 80 | 210 | 0.0 | 0.0 | 0.00 | 0.00 | 0.00 | 71 | 1012.1 |
| 20260906093105 | 80 | 210 | 0.0 | 2.0 | 0.00 | 0.00 | 0.00 | 71 | 1012.2 |
| 20260906093047 | 80 | 211 | 0.0 | 1.0 | 0.00 | 0.00 | 0.00 | 71 | 1012.1 |
| 20260906092652 | 80 | 210 | 0.0 | 2.0 | 0.00 | 0.00 | 0.00 | 71 | 1012.1 |
| 20260906091535 | 81 | 211 | 0.0 | 1.0 | 0.00 | 0.00 | 0.00 | 71 | 1012.2 |
| 20260906091025 | 81 | 213 | 0.0 | 1.0 | 0.00 | 0.00 | 0.00 | 71 | 1012.2 |
| 20260906090515 | 81 | 214 | 0.0 | 2.0 | 0.00 | 0.00 | 0.00 | 71 | 1012.2 |
| 20260906090005 | 81 | 215 | 0.0 | 2.0 | 0.00 | 0.00 | 0.00 | 71 | 1012.1 |
| 20260906085957 | 81 | 214 | 0.0 | 3.0 | 0.00 | 0.00 | 0.00 | 70 | 1012.1 |
| 20260906084945 | 81 | 216 | 0.0 | 3.0 | 0.00 | 0.00 | 0.00 | 70 | 1012.1 |
| 20260906084435 | 81 | 208 | 0.0 | 3.0 | 0.00 | 0.00 | 0.00 | 70 | 1012.0 |
| 20260906083917 | 81 | 233 | 1.0 | 5.0 | 0.00 | 0.00 | 0.00 | 70 | 1012.0 |
| 20260906083407 | 81 | 228 | 1.0 | 6.0 | 0.00 | 0.00 | 0.00 | 70 | 1012.0 |
| 20260906082857 | 82 | 203 | 2.0 | 5.0 | 0.00 | 0.00 | 0.00 | 70 | 1012.0 |
| 20260906082347 | 82 | 195 | 2.0 | 8.0 | 0.00 | 0.00 | 0.00 | 69 | 1012.1 |
| 20260906081837 | 82 | 200 | 2.0 | 6.0 | 0.00 | 0.00 | 0.00 | 69 | 1012.0 |
| 20260906081327 | 82 | 199 | 2.0 | 8.0 | 0.00 | 0.00 | 0.00 | 69 | 1012.0 |
| 20260906080817 | 82 | 165 | 2.0 | 7.0 | 0.00 | 0.00 | 0.00 | 69 | 1012.0 |
| 20260906080307 | 82 | 200 | 2.0 | 5.0 | 0.00 | 0.00 | 0.00 | 69 | 1012.1 |
| 20260906075757 | 82 | 234 | 2.0 | 7.0 | 0.00 | 0.00 | 0.00 | 69 | 1012.2 |
| 20260906075240 | 82 | 166 | 2.0 | 7.0 | 0.00 | 0.00 | 0.00 | 69 | 1012.2 |
| 20260906074729 | 82 | 161 | 2.0 | 8.0 | 0.00 | 0.00 | 0.00 | 69 | 1012.2 |
| 20260906074721 | 83 | 181 | 2.0 | 8.0 | 0.00 | 0.00 | 0.00 | 68 | 1012.3 |
| 20260906073709 | 83 | 236 | 2.0 | 6.0 | 0.00 | 0.00 | 0.00 | 68 | 1012.2 |
| 20260906073701 | 83 | 222 | 2.0 | 9.0 | 0.00 | 0.00 | 0.00 | 68 | 1012.1 |
| 20260906072649 | 83 | 230 | 2.0 | 9.0 | 0.00 | 0.00 | 0.00 | 68 | 1012.2 |
| 20260906072140 | 83 | 204 | 2.0 | 8.0 | 0.00 | 0.00 | 0.00 | 68 | 1012.3 |
| 20260906071629 | 83 | 170 | 3.0 | 8.0 | 0.00 | 0.00 | 0.00 | 68 | 1012.3 |
| 20260906071120 | 83 | 155 | 4.0 | 10.0 | 0.00 | 0.00 | 0.00 | 68 | 1012.3 |
| 20260906070609 | 83 | 210 | 4.0 | 10.0 | 0.00 | 0.00 | 0.00 | 67 | 1012.4 |
| 20260906070055 | 83 | 170 | 4.0 | 11.0 | 0.00 | 0.00 | 0.00 | 67 | 1012.4 |
| 20260906065546 | 83 | 169 | 3.0 | 11.0 | 0.00 | 0.00 | 0.00 | 67 | 1012.5 |
| 20260906065036 | 83 | 186 | 3.0 | 9.0 | 0.00 | 0.00 | 0.00 | 67 | 1012.5 |
| 20260906064525 | 84 | 225 | 4.0 | 11.0 | 0.00 | 0.00 | 0.00 | 67 | 1012.5 |
| 20260906064016 | 84 | 121 | 5.0 | 11.0 | 0.00 | 0.00 | 0.00 | 67 | 1012.5 |
| 20260906064011 | 84 | 189 | 3.0 | 8.0 | 0.00 | 0.00 | 0.00 | 66 | 1012.5 |
| 20260906063001 | 84 | 178 | 3.0 | 8.0 | 0.00 | 0.00 | 0.00 | 66 | 1012.6 |
| 20260906062459 | 84 | 147 | 2.0 | 8.0 | 0.00 | 0.00 | 0.00 | 66 | 1012.6 |
| 20260906062454 | 84 | 180 | 2.0 | 4.0 | 0.00 | 0.00 | 0.00 | 66 | 1012.6 |
| 20260906061948 | 84 | 206 | 2.0 | 4.0 | 0.00 | 0.00 | 0.00 | 66 | 1012.7 |
| 20260906060944 | 84 | 190 | 1.0 | 4.0 | 0.00 | 0.00 | 0.00 | 66 | 1012.7 |
| 20260906060440 | 84 | 174 | 1.0 | 3.0 | 0.00 | 0.00 | 0.00 | 66 | 1012.7 |
| 20260906060434 | 85 | 221 | 2.0 | 6.0 | 0.00 | 0.00 | 0.00 | 66 | 1012.7 |
| 20260906055436 | 85 | 191 | 2.0 | 4.0 | 0.00 | 0.00 | 0.00 | 66 | 1012.6 |
| 20260906055431 | 85 | 207 | 1.0 | 7.0 | 0.00 | 0.00 | 0.00 | 66 | 1012.7 |
| 20260906054916 | 85 | 201 | 1.0 | 5.0 | 0.00 | 0.00 | 0.00 | 65 | 1012.6 |
| 20260906053905 | 85 | 184 | 2.0 | 7.0 | 0.00 | 0.00 | 0.00 | 65 | 1012.6 |
| 20260906053401 | 85 | 210 | 2.0 | 7.0 | 0.00 | 0.00 | 0.00 | 65 | 1012.5 |
| 20260906053357 | 85 | 195 | 2.0 | 7.0 | 0.00 | 0.00 | 0.00 | 65 | 1012.5 |
| 20260906052352 | 85 | 209 | 2.0 | 7.0 | 0.00 | 0.00 | 0.00 | 65 | 1012.5 |
| 20260906051849 | 85 | 205 | 2.0 | 8.0 | 0.00 | 0.00 | 0.00 | 64 | 1012.5 |
| 20260906051343 | 85 | 206 | 2.0 | 8.0 | 0.00 | 0.00 | 0.00 | 64 | 1012.5 |
| 20260906050838 | 85 | 174 | 3.0 | 8.0 | 0.00 | 0.00 | 0.00 | 64 | 1012.5 |
| 20260906050331 | 85 | 207 | 3.0 | 8.0 | 0.00 | 0.00 | 0.00 | 64 | 1012.5 |
| 20260906050326 | 86 | 126 | 3.0 | 7.0 | 0.00 | 0.00 | 0.00 | 63 | 1012.4 |
| 20260906045814 | 86 | 164 | 3.0 | 7.0 | 0.00 | 0.00 | 0.00 | 63 | 1012.5 |
| 20260906044804 | 86 | 146 | 3.0 | 8.0 | 0.00 | 0.00 | 0.00 | 63 | 1012.6 |
| 20260906044253 | 86 | 143 | 3.0 | 8.0 | 0.00 | 0.00 | 0.00 | 63 | 1012.6 |
| 20260906043744 | 86 | 128 | 3.0 | 7.0 | 0.00 | 0.00 | 0.00 | 62 | 1012.5 |
| 20260906043233 | 86 | 166 | 4.0 | 7.0 | 0.00 | 0.00 | 0.00 | 62 | 1012.5 |
| 20260906042724 | 86 | 163 | 3.0 | 7.0 | 0.00 | 0.00 | 0.00 | 62 | 1012.4 |
| 20260906042213 | 86 | 159 | 3.0 | 8.0 | 0.00 | 0.00 | 0.00 | 62 | 1012.3 |
| 20260906041724 | 86 | 150 | 3.0 | 8.0 | 0.00 | 0.00 | 0.00 | 61 | 1012.4 |
| 20260906041153 | 86 | 146 | 3.0 | 7.0 | 0.00 | 0.00 | 0.00 | 61 | 1012.4 |
| 20260906040644 | 86 | 151 | 3.0 | 7.0 | 0.00 | 0.00 | 0.00 | 61 | 1012.3 |
| 20260906040134 | 86 | 139 | 4.0 | 8.0 | 0.00 | 0.00 | 0.00 | 61 | 1012.4 |
| 20260906035624 | 87 | 156 | 4.0 | 10.0 | 0.00 | 0.00 | 0.00 | 61 | 1012.4 |
| 20260906035113 | 87 | 142 | 4.0 | 10.0 | 0.00 | 0.00 | 0.00 | 60 | 1012.3 |
| 20260906034603 | 87 | 143 | 4.0 | 8.0 | 0.00 | 0.00 | 0.00 | 60 | 1012.3 |
| 20260906034555 | 87 | 161 | 4.0 | 10.0 | 0.00 | 0.00 | 0.00 | 60 | 1012.4 |
| 20260906033544 | 87 | 150 | 4.0 | 10.0 | 0.00 | 0.00 | 0.00 | 60 | 1012.4 |
| 20260906033033 | 87 | 199 | 5.0 | 13.0 | 0.00 | 0.00 | 0.00 | 60 | 1012.4 |
| 20260906032523 | 87 | 120 | 5.0 | 13.0 | 0.00 | 0.00 | 0.00 | 59 | 1012.4 |
| 20260906032013 | 87 | 136 | 5.0 | 10.0 | 0.00 | 0.00 | 0.00 | 59 | 1012.5 |
| 20260906031455 | 87 | 177 | 4.0 | 10.0 | 0.00 | 0.00 | 0.00 | 59 | 1012.4 |
| 20260906030945 | 87 | 139 | 4.0 | 12.0 | 0.00 | 0.00 | 0.00 | 59 | 1012.4 |
| 20260906030935 | 87 | 147 | 5.0 | 12.0 | 0.00 | 0.00 | 0.00 | 58 | 1012.4 |
| 20260906025925 | 88 | 125 | 5.0 | 11.0 | 0.00 | 0.00 | 0.00 | 58 | 1012.4 |
| 20260906025916 | 88 | 124 | 5.0 | 12.0 | 0.00 | 0.00 | 0.00 | 58 | 1012.4 |
| 20260906024905 | 88 | 117 | 4.0 | 12.0 | 0.00 | 0.00 | 0.00 | 58 | 1012.4 |
| 20260906024858 | 88 | 139 | 4.0 | 10.0 | 0.00 | 0.00 | 0.00 | 58 | 1012.3 |
| 20260906023856 | 88 | 152 | 5.0 | 13.0 | 0.00 | 0.00 | 0.00 | 58 | 1012.3 |
| 20260906023357 | 88 | 139 | 4.0 | 10.0 | 0.00 | 0.00 | 0.00 | 57 | 1012.1 |
| 20260906022847 | 88 | 124 | 4.0 | 11.0 | 0.00 | 0.00 | 0.00 | 57 | 1012.1 |
| 20260906022337 | 88 | 159 | 5.0 | 11.0 | 0.00 | 0.00 | 0.00 | 57 | 1011.9 |
| 20260906021827 | 88 | 138 | 6.0 | 13.0 | 0.00 | 0.00 | 0.00 | 57 | 1011.9 |
| 20260906021317 | 88 | 122 | 6.0 | 13.0 | 0.00 | 0.00 | 0.00 | 57 | 1011.7 |
| 20260906020807 | 88 | 145 | 6.0 | 12.0 | 0.00 | 0.00 | 0.00 | 56 | 1011.7 |
| 20260906020256 | 89 | 157 | 7.0 | 14.0 | 0.00 | 0.00 | 0.00 | 56 | 1011.7 |
| 20260906015747 | 89 | 127 | 6.0 | 14.0 | 0.00 | 0.00 | 0.00 | 56 | 1011.6 |
| 20260906015235 | 89 | 114 | 6.0 | 12.0 | 0.00 | 0.00 | 0.00 | 55 | 1011.5 |
| 20260906014725 | 89 | 141 | 7.0 | 17.0 | 0.00 | 0.00 | 0.00 | 55 | 1011.5 |
| 20260906014215 | 89 | 147 | 7.0 | 17.0 | 0.00 | 0.00 | 0.00 | 54 | 1011.3 |
| 20260906013705 | 90 | 129 | 6.0 | 16.0 | 0.00 | 0.00 | 0.00 | 54 | 1011.2 |
| 20260906013155 | 90 | 128 | 5.0 | 13.0 | 0.00 | 0.00 | 0.00 | 54 | 1011.1 |
| 20260906012645 | 90 | 151 | 6.0 | 17.0 | 0.00 | 0.00 | 0.00 | 53 | 1011.1 |
| 20260906012134 | 90 | 138 | 7.0 | 17.0 | 0.00 | 0.00 | 0.00 | 53 | 1011.0 |
| 20260906011625 | 91 | 136 | 7.0 | 18.0 | 0.00 | 0.00 | 0.00 | 52 | 1010.8 |
| 20260906011617 | 91 | 129 | 7.0 | 18.0 | 0.00 | 0.00 | 0.00 | 51 | 1010.8 |
| 20260906011106 | 92 | 79 | 7.0 | 16.0 | 0.00 | 0.00 | 0.00 | 50 | 1010.8 |
| 20260906010555 | 93 | 80 | 8.0 | 23.0 | 0.00 | 0.00 | 0.00 | 49 | 1010.7 |
| 20260906005545 | 93 | 157 | 10.0 | 23.0 | 0.00 | 0.00 | 0.00 | 48 | 1010.7 |
| 20260906005123 | 95 | 86 | 8.0 | 20.0 | 0.00 | 0.00 | 0.00 | 46 | 1010.6 |
| 20260906004622 | 96 | 148 | 4.0 | 19.0 | 0.00 | 0.00 | 0.00 | 42 | 1010.5 |
| 20260906003502 | 96 | 109 | 4.0 | 12.0 | 0.00 | 0.00 | 0.00 | 40 | 1010.4 |
| 20260906002953 | 96 | 149 | 3.0 | 9.0 | 0.00 | 0.00 | 0.00 | 39 | 1010.4 |
| 20260906002443 | 96 | 134 | 3.0 | 9.0 | 0.00 | 0.00 | 0.00 | 39 | 1010.4 |
| 20260906001933 | 96 | 99 | 3.0 | 9.0 | 0.00 | 0.00 | 0.00 | 38 | 1010.4 |
| 20260906001421 | 97 | 136 | 4.0 | 12.0 | 0.00 | 0.00 | 0.00 | 38 | 1010.3 |
| 20260906000911 | 97 | 151 | 5.0 | 12.0 | 0.00 | 0.00 | 0.00 | 38 | 1010.3 |
| 20260906000403 | 97 | 61 | 5.0 | 11.0 | 0.00 | 0.00 | 0.00 | 38 | 1010.3 |
| 20260905235853 | 97 | 130 | 4.0 | 11.0 | 0.00 | 0.00 | 0.00 | 38 | 1010.2 |
| 20260905235844 | 97 | 102 | 3.0 | 8.0 | 0.00 | 0.00 | 0.00 | 38 | 1010.2 |
| 20260905234833 | 97 | 94 | 2.0 | 6.0 | 0.00 | 0.00 | 0.00 | 37 | 1010.2 |
| 20260905234316 | 97 | 139 | 2.0 | 6.0 | 0.00 | 0.00 | 0.00 | 37 | 1010.1 |
| 20260905233807 | 97 | 144 | 1.0 | 4.0 | 0.00 | 0.00 | 0.00 | 38 | 1010.1 |
| 20260905233258 | 97 | 89 | 1.0 | 6.0 | 0.00 | 0.00 | 0.00 | 37 | 1010.1 |
| 20260905232747 | 98 | 89 | 3.0 | 7.0 | 0.00 | 0.00 | 0.00 | 37 | 1010.2 |
| 20260905232242 | 98 | 126 | 4.0 | 8.0 | 0.00 | 0.00 | 0.00 | 36 | 1010.2 |
| 20260905231735 | 98 | 74 | 3.0 | 8.0 | 0.00 | 0.00 | 0.00 | 36 | 1010.2 |
| 20260905231226 | 98 | 111 | 3.0 | 11.0 | 0.00 | 0.00 | 0.00 | 36 | 1010.2 |
| 20260905231221 | 98 | 121 | 3.0 | 11.0 | 0.00 | 0.00 | 0.00 | 37 | 1010.1 |
| 20260905230210 | 98 | 159 | 2.0 | 8.0 | 0.00 | 0.00 | 0.00 | 37 | 1010.1 |
| 20260905225707 | 98 | 36 | 2.0 | 9.0 | 0.00 | 0.00 | 0.00 | 37 | 1010.0 |
| 20260905225159 | 98 | 28 | 2.0 | 9.0 | 0.00 | 0.00 | 0.00 | 37 | 1010.0 |
| 20260905224658 | 98 | 93 | 2.0 | 5.0 | 0.00 | 0.00 | 0.00 | 36 | 1010.0 |
| 20260905224154 | 98 | 63 | 1.0 | 5.0 | 0.00 | 0.00 | 0.00 | 36 | 1010.0 |
| 20260905223652 | 98 | 127 | 1.0 | 4.0 | 0.00 | 0.00 | 0.00 | 36 | 1010.0 |
| 20260905223150 | 98 | 145 | 2.0 | 5.0 | 0.00 | 0.00 | 0.00 | 36 | 1010.0 |
| 20260905222649 | 98 | 51 | 1.0 | 5.0 | 0.00 | 0.00 | 0.00 | 36 | 1010.0 |
| 20260905222141 | 99 | 82 | 3.0 | 9.0 | 0.00 | 0.00 | 0.00 | 36 | 1010.1 |
| 20260905221631 | 99 | 95 | 2.0 | 9.0 | 0.00 | 0.00 | 0.00 | 36 | 1010.2 |
| 20260905221126 | 98 | 66 | 2.0 | 8.0 | 0.00 | 0.00 | 0.00 | 37 | 1010.2 |
| 20260905220619 | 99 | 103 | 3.0 | 8.0 | 0.00 | 0.00 | 0.00 | 36 | 1010.2 |
| 20260905220614 | 99 | 55 | 3.0 | 9.0 | 0.00 | 0.00 | 0.00 | 36 | 1010.3 |
| 20260905215615 | 100 | 64 | 4.0 | 9.0 | 0.00 | 0.00 | 0.00 | 36 | 1010.3 |
| 20260905215110 | 100 | 76 | 4.0 | 9.0 | 0.00 | 0.00 | 0.00 | 35 | 1010.4 |
| 20260905214615 | 99 | 43 | 2.0 | 7.0 | 0.00 | 0.00 | 0.00 | 37 | 1010.4 |
| 20260905214610 | 100 | 55 | 2.0 | 9.0 | 0.00 | 0.00 | 0.00 | 36 | 1010.4 |
| 20260905213608 | 101 | 45 | 2.0 | 8.0 | 0.00 | 0.00 | 0.00 | 36 | 1010.5 |
| 20260905213107 | 100 | 24 | 1.0 | 6.0 | 0.00 | 0.00 | 0.00 | 37 | 1010.6 |
| 20260905212559 | 98 | 188 | 2.0 | 5.0 | 0.00 | 0.00 | 0.00 | 37 | 1010.6 |
| 20260905212044 | 98 | 174 | 3.0 | 8.0 | 0.00 | 0.00 | 0.00 | 37 | 1010.8 |
| 20260905211541 | 98 | 166 | 2.0 | 7.0 | 0.00 | 0.00 | 0.00 | 36 | 1010.8 |
| 20260905211123 | 100 | 82 | 1.0 | 8.0 | 0.00 | 0.00 | 0.00 | 35 | 1011.0 |
| 20260905210622 | 100 | 83 | 3.0 | 8.0 | 0.00 | 0.00 | 0.00 | 36 | 1011.1 |
| 20260905205506 | 101 | 190 | 4.0 | 9.0 | 0.00 | 0.00 | 0.00 | 36 | 1011.1 |
| 20260905205006 | 100 | 153 | 4.0 | 9.0 | 0.00 | 0.00 | 0.00 | 36 | 1011.2 |
| 20260905204459 | 102 | 121 | 3.0 | 10.0 | 0.00 | 0.00 | 0.00 | 35 | 1011.2 |
| 20260905204454 | 101 | 174 | 3.0 | 10.0 | 0.00 | 0.00 | 0.00 | 34 | 1011.2 |
| 20260905203445 | 100 | 164 | 2.0 | 8.0 | 0.00 | 0.00 | 0.00 | 35 | 1011.3 |
| 20260905202934 | 99 | 140 | 3.0 | 7.0 | 0.00 | 0.00 | 0.00 | 36 | 1011.4 |
| 20260905202428 | 100 | 131 | 3.0 | 8.0 | 0.00 | 0.00 | 0.00 | 36 | 1011.5 |
| 20260905201918 | 99 | 193 | 3.0 | 8.0 | 0.00 | 0.00 | 0.00 | 36 | 1011.5 |
| 20260905201408 | 100 | 29 | 3.0 | 8.0 | 0.00 | 0.00 | 0.00 | 36 | 1011.5 |
| 20260905200858 | 100 | 39 | 3.0 | 8.0 | 0.00 | 0.00 | 0.00 | 37 | 1011.5 |
| 20260905200850 | 99 | 94 | 3.0 | 7.0 | 0.00 | 0.00 | 0.00 | 37 | 1011.7 |
| 20260905195842 | 98 | 70 | 2.0 | 7.0 | 0.00 | 0.00 | 0.00 | 37 | 1011.8 |
| 20260905195329 | 99 | 114 | 3.0 | 9.0 | 0.00 | 0.00 | 0.00 | 36 | 1011.9 |